Total_Precipitation_Accumulation
1.19 1.29 1.29 1.36 1.35 1.37 1.40 1.39 1.35 1.33 1.29 1.29 1.28 1.27 1.25 1.31 1.37 1.42 1.35 1.34 1.30 1.32 1.32 1.34 1.34 1.42 1.48 1.47 1.55 1.58 1.64 1.76 1.63 1.36 1.41 1.51 1.50 1.34 1.29 1.26 1.23 1.22 1.19
0.97 0.99 1.05 1.14 1.19 1.19 1.19 1.28 1.35 1.31 1.25 1.30 1.33 1.27 1.17 1.23 1.35 1.37 1.30 1.34 1.36 1.32 1.37 1.50 1.43 1.46 1.54 1.58 1.72 1.68 1.73 1.95 1.94 1.71 1.67 1.73 1.61 1.51 1.43 1.34 1.19 1.12 1.13
0.86 0.88 0.94 1.01 1.04 1.06 1.11 1.21 1.31 1.34 1.34 1.31 1.27 1.19 1.16 1.19 1.23 1.27 1.34 1.45 1.49 1.49 1.54 1.60 1.62 1.74 1.69 1.71 1.77 1.76 1.82 2.03 2.21 2.05 1.94 2.00 1.95 1.72 1.60 1.40 1.26 1.27 1.12
0.92 1.01 1.12 1.15 1.17 1.18 1.20 1.30 1.39 1.44 1.41 1.43 1.42 1.44 1.43 1.38 1.35 1.38 1.46 1.51 1.53 1.56 1.65 1.65 1.66 1.73 1.79 1.87 1.90 1.99 2.13 2.30 2.45 2.37 2.29 2.33 2.32 2.14 1.92 1.59 1.48 1.40 1.28
1.12 1.22 1.39 1.53 1.54 1.43 1.44 1.56 1.66 1.71 1.66 1.77 1.75 1.70 1.72 1.67 1.51 1.58 1.63 1.58 1.67 1.60 1.64 1.65 1.60 1.66 1.73 1.83 1.83 1.99 2.24 2.45 2.62 2.66 2.65 2.77 2.68 2.49 2.19 1.84 1.75 1.66 1.53
0.98 1.10 1.31 1.49 1.55 1.55 1.60 1.72 1.77 1.76 1.85 1.89 1.83 1.80 1.79 1.58 1.67 1.73 1.70 1.75 1.78 1.73 1.74 1.75 1.69 1.63 1.60 1.63 1.71 1.82 1.97 2.17 2.43 2.63 2.72 2.79 2.82 2.68 2.47 2.22 1.90 1.64 1.51
1.13 1.28 1.39 1.48 1.57 1.61 1.62 1.70 1.77 1.78 1.76 1.81 1.83 1.81 1.71 1.66 1.64 1.51 1.52 1.52 1.62 1.69 1.70 1.70 1.56 1.45 1.49 1.42 1.53 1.58 1.59 1.68 1.81 2.05 2.27 2.32 2.50 2.58 2.48 2.16 1.85 1.60 1.41
1.10 1.21 1.29 1.45 1.58 1.67 1.81 1.89 1.96 2.02 2.03 2.02 1.94 1.89 1.87 1.75 1.63 1.47 1.47 1.35 1.39 1.43 1.47 1.51 1.52 1.43 1.42 1.48 1.47 1.39 1.27 1.28 1.37 1.40 1.52 1.77 2.02 2.29 2.35 2.23 2.14 1.86 1.58
1.20 1.37 1.50 1.58 1.71 1.77 1.82 1.95 2.09 2.18 2.14 2.12 2.09 2.12 2.13 2.10 1.98 1.69 1.56 1.46 1.52 1.51 1.51 1.51 1.52 1.40 1.46 1.38 1.33 1.31 1.24 1.19 1.21 1.25 1.31 1.50 1.77 1.97 2.16 2.16 2.07 1.96 1.72
1.41 1.50 1.60 1.75 1.81 1.80 1.80 1.88 1.94 2.00 2.04 2.05 2.00 2.07 2.04 2.05 2.10 1.80 1.56 1.39 1.44 1.47 1.53 1.54 1.57 1.44 1.49 1.41 1.37 1.40 1.31 1.23 1.22 1.20 1.22 1.28 1.36 1.61 1.87 1.87 1.82 1.84 1.72
1.48 1.53 1.63 1.72 1.88 1.94 1.96 1.88 1.80 1.82 1.87 1.93 1.97 2.04 2.08 2.05 1.99 1.65 1.49 1.41 1.48 1.51 1.47 1.44 1.50 1.50 1.34 1.23 1.15 1.16 1.21 1.21 1.21 1.18 1.15 1.17 1.23 1.33 1.52 1.62 1.67 1.63 1.56
1.49 1.56 1.64 1.67 1.68 1.70 1.86 1.90 1.86 1.84 1.84 1.87 1.95 1.95 1.91 1.88 1.76 1.45 1.20 1.17 1.27 1.31 1.33 1.32 1.33 1.29 1.12 0.99 0.87 0.85 0.88 0.85 0.92 1.01 1.03 1.03 1.06 1.13 1.29 1.52 1.66 1.64 1.50
1.57 1.70 1.79 1.77 1.75 1.74 1.75 1.81 1.80 1.72 1.61 1.56 1.66 1.73 1.74 1.76 1.66 1.39 1.12 1.04 1.06 1.04 1.13 1.31 1.31 1.17 1.08 1.01 0.95 0.85 0.76 0.69 0.77 0.86 0.84 0.85 0.88 0.97 1.13 1.43 1.68 1.83 1.71
1.73 1.74 1.75 1.76 1.70 1.73 1.82 1.76 1.71 1.70 1.60 1.46 1.54 1.66 1.72 1.74 1.63 1.42 1.26 1.18 1.14 1.10 1.13 1.27 1.35 1.33 1.24 1.15 1.05 0.88 0.72 0.70 0.72 0.76 0.81 0.83 0.91 1.00 1.10 1.18 1.41 1.62 1.69
1.63 1.54 1.54 1.57 1.54 1.52 1.62 1.69 1.57 1.53 1.55 1.49 1.60 1.79 1.78 1.63 1.49 1.32 1.16 1.16 1.17 1.22 1.24 1.36 1.48 1.50 1.46 1.35 1.19 1.03 0.91 0.86 0.82 0.80 0.88 0.90 0.94 0.96 0.99 1.03 1.20 1.35 1.37
1.66 1.59 1.53 1.49 1.50 1.53 1.53 1.53 1.49 1.33 1.32 1.28 1.33 1.41 1.46 1.36 1.23 1.11 1.03 1.01 0.99 1.00 1.04 1.23 1.50 1.57 1.58 1.55 1.43 1.24 1.09 1.00 0.95 0.93 0.94 0.95 0.95 0.99 1.02 1.07 1.15 1.27 1.28
1.67 1.68 1.61 1.44 1.35 1.32 1.34 1.35 1.36 1.26 1.04 0.99 1.00 0.96 0.94 0.91 0.87 0.90 0.91 0.85 0.80 0.74 0.74 0.94 1.24 1.46 1.55 1.58 1.50 1.31 1.14 1.09 1.10 1.05 1.01 0.99 0.99 1.01 1.09 1.13 1.16 1.23 1.29
1.40 1.46 1.42 1.32 1.26 1.18 1.13 1.10 1.09 1.17 1.15 1.01 0.92 0.84 0.80 0.75 0.75 0.90 0.97 0.78 0.64 0.59 0.59 0.76 1.01 1.28 1.39 1.44 1.43 1.37 1.27 1.22 1.20 1.15 1.11 1.08 1.06 1.07 1.07 1.11 1.15 1.18 1.22
1.25 1.27 1.24 1.25 1.30 1.28 1.26 1.20 1.12 1.10 1.19 1.23 1.13 0.92 0.86 0.81 0.83 1.04 1.10 0.81 0.70 0.74 0.75 0.81 0.95 1.18 1.34 1.43 1.46 1.43 1.37 1.33 1.30 1.29 1.24 1.21 1.18 1.21 1.17 1.11 1.15 1.24 1.27
1.19 1.29 1.22 1.14 1.16 1.24 1.25 1.20 1.21 1.29 1.31 1.41 1.41 1.14 0.95 0.89 0.87 1.12 1.22 1.06 0.99 0.99 0.97 0.97 1.02 1.17 1.33 1.45 1.48 1.43 1.43 1.41 1.42 1.39 1.34 1.30 1.25 1.26 1.26 1.24 1.26 1.30 1.25
1.14 1.16 1.19 1.13 1.12 1.14 1.14 1.14 1.16 1.27 1.38 1.44 1.42 1.22 1.08 0.98 1.08 1.29 1.45 1.32 1.20 1.18 1.14 1.09 1.11 1.21 1.29 1.40 1.40 1.36 1.37 1.42 1.41 1.38 1.35 1.33 1.28 1.25 1.25 1.27 1.27 1.30 1.29
1.06 1.10 1.12 1.12 1.13 1.11 1.11 1.17 1.22 1.35 1.46 1.52 1.42 1.28 1.25 1.18 1.24 1.38 1.43 1.37 1.30 1.24 1.20 1.18 1.22 1.29 1.31 1.33 1.33 1.33 1.34 1.37 1.36 1.36 1.39 1.39 1.37 1.33 1.33 1.30 1.28 1.30 1.33
0.92 0.98 1.03 1.06 1.06 1.03 1.04 1.08 1.11 1.19 1.32 1.40 1.34 1.30 1.30 1.35 1.33 1.37 1.42 1.39 1.33 1.30 1.23 1.21 1.22 1.22 1.22 1.22 1.18 1.20 1.24 1.22 1.21 1.24 1.32 1.37 1.39 1.37 1.34 1.29 1.25 1.27 1.31
0.70 0.71 0.72 0.76 0.79 0.83 0.88 0.90 0.90 0.94 1.07 1.14 1.10 1.15 1.19 1.22 1.20 1.22 1.25 1.25 1.26 1.27 1.24 1.17 1.14 1.12 1.08 1.06 1.05 1.05 1.04 1.06 1.07 1.10 1.16 1.25 1.30 1.34 1.34 1.30 1.30 1.31 1.34
0.66 0.66 0.64 0.67 0.67 0.71 0.75 0.78 0.85 0.93 0.97 1.00 1.03 1.05 1.08 1.08 1.09 1.11 1.09 1.08 1.08 1.08 1.04 1.01 1.03 1.04 1.06 0.99 0.92 0.87 0.89 0.87 0.88 0.94 0.98 1.09 1.16 1.22 1.25 1.25 1.29 1.34 1.36
0.60 0.64 0.65 0.68 0.71 0.72 0.74 0.78 0.83 0.83 0.84 0.86 0.89 0.96 1.03 1.02 1.00 1.00 0.96 0.94 0.96 0.95 0.92 0.91 0.91 0.94 0.94 0.89 0.85 0.84 0.80 0.73 0.74 0.81 0.82 0.91 1.03 1.10 1.14 1.18 1.18 1.24 1.27